Taba International, Egypt

6:34 AM EET on May 25, 2018 (GMT +0200)
Taba International

Weather History for HETB - March, 2013

Change the Weather History Date:

Wednesday, March 13, 2013

  Actual Average (WUND) Record (WUND)
Temperature  
Mean Temperature 72 °F -  
Max Temperature 86 °F - - (-1)
Min Temperature 59 °F - - (-1)
Cooling Degree Days 8    
Growing Degree Days 22 (Base 50)    
Moisture  
Dew Point 19 °F    
Average Humidity 14    
Maximum Humidity 32    
Minimum Humidity 7    
Precipitation  
Precipitation 0.00 in - - ()
Sea Level Pressure  
Sea Level Pressure 30.01 in    
Wind  
Wind Speed 3 mph ()    
Max Wind Speed 9 mph    
Max Gust Speed -    
Averages and records for this station are not official NWS values.
T = Trace of Precipitation, MM = Missing Value Source: Averaged Metar Reports

Daily Weather History Graph

Daily Weather History Graph

Search for Another Location

Airport or City:

Astronomy

Mar. 13, 2013 Rise Set
Actual Time 5:53 AM EET 5:47 PM EET
Civil Twilight 5:29 AM EET 6:11 PM EET
Nautical Twilight 5:01 AM EET 6:39 PM EET
Astronomical Twilight 4:34 AM EET 7:07 PM EET
Moon 6:31 AM EET (3/13) 7:30 PM EET (3/13)
Length of Visible Light 12h 42m
Length of Day
11h 54m
Waxing Crescent, 3% of the Moon is Illuminated
Mar 13
Waxing Crescent
Mar 19
First Quarter
Mar 27
Full
Apr 3
Last Quarter
Apr 10
New

Hourly Weather History & Observations

Time (EET) Temp. Dew Point Humidity Pressure Visibility Wind Dir Wind Speed Gust Speed Precip Events Conditions
12:00 AM 66.2 °F 19.4 °F 17% 30.04 in - Calm Calm - N/A   Clear
1:00 AM 68.0 °F 24.8 °F 20% 30.04 in - Calm Calm - N/A   Clear
2:00 AM 66.2 °F 21.2 °F 18% 30.01 in - Calm Calm - N/A   Clear
3:00 AM 68.0 °F 19.4 °F 16% 29.98 in - Calm Calm - N/A   Clear
4:00 AM 68.0 °F 17.6 °F 15% 30.01 in - Calm Calm - N/A   Clear
5:00 AM 60.8 °F 19.4 °F 20% 30.01 in - Calm Calm - N/A   Clear
7:00 AM 59.0 °F 19.4 °F 22% 30.01 in - Calm Calm - N/A   Clear
8:00 AM 71.6 °F 15.8 °F 12% 30.04 in - Calm Calm - N/A   Clear
9:00 AM 77.0 °F 14.0 °F 9% 30.04 in - NNE 4.6 mph - N/A   Clear
10:00 AM 80.6 °F 14.0 °F 8% 30.04 in - ENE 9.2 mph - N/A   Clear
11:00 AM 80.6 °F 14.0 °F 8% 30.04 in - ENE 9.2 mph - N/A   Clear
12:00 PM 80.6 °F 14.0 °F 8% 30.04 in - ENE 9.2 mph - N/A   Clear
1:00 PM 80.6 °F 14.0 °F 8% 30.04 in - ENE 9.2 mph - N/A   Clear
2:00 PM 80.6 °F 14.0 °F 8% 30.04 in - ENE 9.2 mph - N/A   Clear
3:00 PM 86.0 °F 15.8 °F 7% 29.95 in - SSE 6.9 mph - N/A   Clear
4:00 PM 86.0 °F 15.8 °F 7% 29.95 in - East 8.1 mph - N/A   Clear
5:00 PM 84.2 °F 14.0 °F 7% 29.95 in - SSE 9.2 mph - N/A   Clear
6:00 PM 80.6 °F 14.0 °F 8% 29.95 in - ESE 5.8 mph - N/A   Clear
7:00 PM 77.0 °F 15.8 °F 10% 29.95 in - East 9.2 mph - N/A   Clear
8:00 PM 75.2 °F 17.6 °F 11% 29.98 in - East 8.1 mph - N/A   Clear
9:00 PM 69.8 °F 23.0 °F 17% 30.01 in - Calm Calm - N/A   Clear
10:00 PM 68.0 °F 35.6 °F 30% 30.04 in - Calm Calm - N/A   Clear
11:00 PM 66.2 °F 35.6 °F 32% 30.01 in - Calm Calm - N/A   Clear